sat.trackr.live / text

‹ back to catalog

STARLINK-35838

NORAD 66836 · 2025-280R

PAYLOAD ACTIVE UNKNOWN

§ Identity

Operator
Country
US
Launch date
2025-12-02
Launch site
AFWTR
Launch vehicle
Mass (kg)
RCS (m²)

Purposes: comms

External: N2YO · Heavens-Above · Gunter

§ Orbital elements

Epoch: 2026-05-25T05:36:45.175680Z

Period
96.11 min
Inclination
70.0008°
Eccentricity
0.0004068
Mean motion
14.98335755 rev/d
Perigee alt
569.2 km
Apogee alt
574.9 km
Semi-major
6,950.2 km
B*
2.1161e-4
RAAN
141.3750°
Arg perigee
264.7865°
Mean anomaly
95.2830°
Rev number
2,754

§ Raw data

STARLINK-358381 66836U 25280R   26145.23385620  .00002433  00000+0  21161-3 0  99982 66836  70.0008 141.3750 0004068 264.7865  95.2830 14.98335755 27548

JSON: /api/v1/satellites/66836 · /tle

For live sub-satellite position, see the globe view (requires WebGL).

§ Visibility from observer

Set your observer location to see the next 7 days of passes ≥ 10°. The values pass through the URL so the page stays shareable.

No JS? Fill the form by hand. The geolocation button needs JavaScript.